Location: Sturminster Marshall
(50.7833°N, 2.0667°W)
Time: 01:21:41
(UTC+00:00)

Daily predictions for brighter satellites

Satellite Brightness Start Highest point End
(mag) Time Altitude Azimuth Time Altitude Azimuth Time Altitude Azimuth
ATLAS CENTAUR R/B 3.2 00:01:15 10° NW 00:02:54 22° NNE 00:05:15 10° ENE
Lacrosse 5 3.8 00:00:33 10° W 00:03:05 14° WSW 00:03:12 14° WSW
STARLINK-1215 3.5 00:00:55 10° WNW 00:04:01 58° N 00:07:06 10° E
STARLINK-1225 3.5 00:00:02 10° WSW 00:04:11 88° NNW 00:08:22 10° ENE
Cosmos 292 Rocket 3.7 00:03:39 35° SSW 00:05:43 80° ESE 00:10:36 10° NNE
STARLINK-1217 3.4 00:02:42 10° WNW 00:05:47 58° N 00:08:52 10° E
STARLINK-1229 3.4 00:03:37 10° WNW 00:06:42 58° N 00:09:48 10° E
STARLINK-1271 4.1 00:02:55 10° W 00:07:03 63° N 00:11:10 10° E
STARLINK-1104 3.8 00:03:32 10° WNW 00:07:33 48° SSW 00:08:13 44° S
STARLINK-1270 3.4 00:04:28 10° WNW 00:07:34 58° N 00:10:41 10° E
STARLINK-1230 3.6 00:05:01 10° WSW 00:09:10 85° NNW 00:13:20 10° ENE
S3M 4.1 00:03:16 10° NNW 00:09:22 66° W 00:12:36 29° SSW
STARLINK-1189 3.4 00:06:19 10° WNW 00:09:25 59° N 00:12:31 10° E
Cosmos 1726 2.0 00:06:16 10° NNW 00:09:59 83° W 00:10:54 49° S
STARLINK-1188 3.4 00:07:12 10° WNW 00:10:18 59° N 00:13:24 10° E
Cosmos 1655 Rocket 4.0 00:07:30 28° SSW 00:10:57 83° W 00:17:16 10° N
STARLINK-1235 3.2 00:07:55 10° WNW 00:11:00 63° N 00:14:04 10° E
STARLINK-1187 3.3 00:08:19 10° WNW 00:11:24 61° N 00:14:29 10° E
STARLINK-1154 4.1 00:07:55 10° W 00:12:02 62° N 00:16:10 10° E
GEOS 3 Rocket 3.8 00:07:39 13° SE 00:12:18 73° NE 00:17:37 10° NW
STARLINK-1144 3.9 00:08:32 10° WNW 00:12:31 45° SSW 00:13:00 43° S
SL-27 R/B 3.5 00:09:31 10° NW 00:12:46 32° WSW 00:13:10 31° WSW
STARLINK-1191 3.4 00:09:41 10° WNW 00:12:46 60° N 00:15:50 10° E
Cosmos 2228 3.6 00:09:28 10° N 00:13:38 50° ENE 00:15:32 28° SE
STARLINK-1221 3.4 00:10:34 10° WNW 00:13:39 60° N 00:16:43 10° E
SJ 16-02 4.3 00:12:08 10° NNE 00:13:41 12° NE 00:15:14 10° ENE
COSMOS 2455 3.9 00:11:39 24° SSE 00:13:57 31° ESE 00:19:09 10° NE
STARLINK-1243 3.6 00:10:00 10° WSW 00:14:09 82° NNW 00:18:19 10° ENE
STARLINK-1222 3.3 00:11:27 10° WNW 00:14:32 60° N 00:17:37 10° E
Cosmos 2263 4.2 00:12:25 31° SSW 00:15:08 72° ESE 00:20:45 10° NNE
STARLINK-1214 3.3 00:12:22 10° WNW 00:15:27 61° N 00:18:32 10° E
STARLINK-1197 4.1 00:12:54 10° W 00:17:02 63° N 00:21:09 10° E
STARLINK-1103 3.9 00:13:32 10° WNW 00:17:28 43° SSW 00:17:46 42° SSW
Cosmos 1953 2.5 00:14:19 10° NNW 00:18:18 60° W 00:19:26 41° SSW
STARLINK-1236 3.7 00:14:58 10° WSW 00:19:08 79° NNW 00:23:18 10° ENE
Cosmos 1340 Rocket 2.8 00:15:50 10° NNW 00:19:53 77° WSW 00:21:08 43° S
STARLINK-1198 4.1 00:17:52 10° W 00:22:00 63° N 00:26:07 10° E
STARLINK-1101 4.0 00:18:31 10° WNW 00:22:25 40° SW 00:22:33 40° SSW
Cosmos 1271 Rocket 3.4 00:21:40 31° SW 00:23:04 45° WNW 00:26:50 10° N
Cosmos 1461 4.3 00:19:33 10° WSW 00:23:31 37° NW 00:27:40 10° NNE
COSMOS 2487 2.5 00:22:48 10° NNW 00:26:17 70° ENE 00:27:18 42° SE
Cosmos 1833 4.2 00:21:23 10° NW 00:26:59 66° WSW 00:29:45 30° S
STARLINK-1199 4.1 00:22:54 10° W 00:27:01 63° N 00:31:09 10° E
STARLINK-1102 4.1 00:23:33 10° WNW 00:27:21 37° SW 00:27:21 37° SW
Cosmos 1992 Rocket 3.9 00:25:15 32° SSW 00:27:42 82° ESE 00:32:56 10° NNE
STARLINK-1269 3.8 00:24:56 10° W 00:29:05 75° NNW 00:33:15 10° ENE
Cosmos 1707 3.6 00:29:05 29° WSW 00:30:32 41° WNW 00:34:17 10° N
STARLINK-1210 4.1 00:27:52 10° WNW 00:32:00 63° N 00:36:08 10° E
STARLINK-1111 4.3 00:28:32 10° WNW 00:32:07 35° SW 00:32:07 35° SW
STARLINK-1200 3.8 00:29:57 10° W 00:34:06 73° NNW 00:38:15 10° ENE
USA 215 4.4 00:33:07 22° SW 00:34:26 23° SW 00:39:30 10° WNW
Cosmos 1626 3.7 00:34:31 21° ESE 00:35:50 26° E 00:38:59 10° NNE
Cosmos 1656 Rocket 3.7 00:33:51 30° SSW 00:36:41 75° ESE 00:42:17 10° NNE
STARLINK-1219 4.0 00:32:51 10° WNW 00:36:59 64° N 00:41:07 10° E
Cosmos 1606 Rocket 3.4 00:32:42 10° N 00:37:03 88° E 00:38:48 36° S
STARLINK-1073 4.4 00:33:33 10° W 00:36:54 32° SW 00:36:54 32° SW
In-Cosmos 22 4.1 00:35:37 31° SSW 00:38:16 79° WNW 00:43:36 10° N
STARLINK-1192 3.8 00:34:56 10° W 00:39:05 71° NNW 00:43:14 10° ENE
FALCON 9 R/B 4.0 00:38:25 23° SSE 00:39:55 24° SSE 00:50:52 10° ESE
EO 1 Delta rocket 4.4 00:35:03 10° N 00:41:46 83° WNW 00:44:41 29° SSW
STARLINK-1211 4.0 00:37:50 10° WNW 00:41:58 65° N 00:46:06 10° E
Meteor 1-16 Rocket 4.5 00:37:16 10° NNW 00:42:46 55° W 00:45:20 29° SSW
CZ-4 R/B 3.8 00:38:19 10° NNE 00:43:12 84° ESE 00:45:23 33° S
STARLINK-1244 3.9 00:39:55 10° W 00:44:03 69° N 00:48:12 10° ENE
APEX 4.4 00:42:04 24° SW 00:46:16 81° WNW 00:51:49 10° NNE
Cosmos 2297 Rocket 3.9 00:41:15 10° NNW 00:46:18 32° NE 00:51:21 10° ESE
ERBS 4.4 00:43:57 10° WNW 00:46:54 29° N 00:49:52 10° NE
STARLINK-1245 4.0 00:42:50 10° WNW 00:46:59 66° N 00:51:07 10° E
Cosmos 2292 Rocket 3.9 00:45:34 31° SW 00:47:19 51° W 00:50:53 10° N
STARLINK-1138 3.9 00:44:55 10° W 00:49:03 68° N 00:53:12 10° ENE
NOSS 7 (A) 4.4 00:48:53 61° SSW 00:49:21 83° SE 00:52:18 10° NE
NOSS 3-2 (C) 4.3 00:42:18 10° NW 00:49:28 49° WSW 00:54:29 23° S
SL-4 R/B 3.2 00:49:12 29° SSE 00:49:58 31° SE 00:54:10 10° E
NOSS 5 (C) 4.4 00:48:01 10° NW 00:51:07 78° NE 00:53:30 20° SE
STARLINK-1203 4.0 00:47:30 10° W 00:51:42 67° N 00:55:54 10° ENE
PSLV R/B 3.6 00:47:12 10° NNE 00:51:52 90° W 00:53:53 33° SSW
STARLINK-1233 4.0 00:47:49 10° WNW 00:51:58 67° N 00:56:06 10° E
STARLINK-1143 3.9 00:49:54 10° W 00:54:02 67° N 00:58:11 10° ENE
Aureole 3 3.9 00:50:56 10° NNW 00:54:23 33° W 00:55:01 31° WSW
Cosmos 1674 2.6 00:53:21 41° SSW 00:54:32 73° W 00:58:18 10° N
STARLINK-1204 3.9 00:52:49 10° WNW 00:56:58 68° N 01:01:06 10° E
ATLAS CENTAUR R/B 2.1 00:56:56 32° SSE 00:58:15 41° ESE 01:02:10 10° NE
Cosmos 1777 Rocket 4.0 00:53:05 10° NNW 00:58:21 87° ENE 01:01:54 21° SSE
Timation 2 Rocket 4.1 00:52:03 10° NNW 00:58:31 79° ENE 01:04:30 11° SE
STARLINK-1241 4.0 00:54:54 10° W 00:59:01 66° N 01:03:10 10° ENE
NOSS 3-4 (A) 3.4 00:57:31 26° SSW 01:01:02 74° SE 01:07:26 10° NE
NOSS 3-4 (C) 3.4 00:57:37 26° SSW 01:01:08 73° SE 01:07:33 10° NE
STARLINK-1238 3.9 00:57:46 10° WNW 01:01:56 70° N 01:06:04 10° E
SL-16 R/B 3.2 00:56:19 10° SE 01:02:16 53° ENE 01:08:14 10° N
Spot 1 4.3 01:00:54 26° SSE 01:03:35 85° ENE 01:08:29 10° NNW
STARLINK-1239 4.0 00:59:53 10° W 01:04:01 65° N 01:08:09 10° ENE
ATLAS 3B R/B 2.6 00:58:49 10° NW 01:05:34 73° SW 01:12:33 10° SSE
STARLINK-1201 3.9 01:02:47 10° WNW 01:06:56 71° NNE 01:11:05 10° E
STARLINK-1240 4.0 01:04:53 10° W 01:09:01 64° N 01:13:09 10° ENE
CENTAUR R/B 3.5 01:01:40 10° NW 01:09:13 45° WSW 01:14:47 21° S
Cosmos 1244 Rocket 4.5 01:07:53 25° S 01:11:43 87° E 01:17:57 10° N
BREEZE-M DEB (TANK) 2.5 01:12:39 27° SE 01:12:39 27° SE 01:14:04 10° E
STARLINK-1206 3.8 01:07:46 10° WNW 01:11:55 73° NNE 01:16:04 10° E
STARLINK-1216 4.1 01:09:53 10° W 01:14:00 63° N 01:18:08 10° ENE
Cosmos 1867 3.9 01:08:49 10° NW 01:14:01 46° WSW 01:16:44 26° S
Cosmos 1908 4.1 01:10:39 10° NNW 01:14:07 34° W 01:15:09 28° SW
STARLINK-1205 3.8 01:12:45 10° WNW 01:16:55 75° NNE 01:21:03 10° E
Cosmos 1892 Rocket 3.5 01:14:51 31° SSW 01:16:55 80° W 01:21:21 10° N
Cosmos 1745 Rocket 4.5 01:12:45 19° SSE 01:17:08 53° E 01:23:05 10° NNE
STARLINK-1237 4.1 01:14:53 10° W 01:19:00 63° N 01:23:08 10° E
RESURS DK-1 3.1 01:19:17 27° SSE 01:21:00 41° ESE 01:24:55 10° NE
STARLINK-1218 3.7 01:17:43 10° WNW 01:21:53 77° NNE 01:26:02 10° ESE
Cosmos 2227 Rocket 3.3 01:16:40 10° NNW 01:22:10 46° NE 01:27:36 10° SE
Cosmos 1356 Rocket 3.7 01:18:48 10° N 01:22:55 63° ENE 01:25:49 19° SSE
STARLINK-1202 4.1 01:19:53 10° W 01:24:00 63° N 01:28:08 10° E
Cosmos 1726 Rocket 4.2 01:21:03 10° NNW 01:25:05 39° W 01:26:45 27° SW
Meteor 1-24 Rocket 3.6 01:22:03 26° S 01:25:09 90° ESE 01:30:36 10° NNE
Cosmos 2369 Rocket 3.5 01:20:46 10° WSW 01:25:53 34° NW 01:31:01 10° NNE
CZ-2D R/B 2.9 01:21:32 10° NNE 01:26:33 42° E 01:30:15 17° SSE
STARLINK-1254 3.7 01:22:42 10° WNW 01:26:53 80° NNE 01:31:02 10° ESE
Helios 1B rocket 3.4 01:23:13 10° N 01:27:04 38° WNW 01:29:11 22° WSW
Meteor 2-14 Rocket 4.4 01:24:00 24° SSW 01:27:50 79° W 01:34:01 10° N
ADEOS II 4.1 01:25:04 10° NE 01:28:53 20° E 01:32:41 10° SE
ATLAS 2AS CENTAUR R/B 3.1 01:23:17 17° SW 01:29:52 81° NW 01:37:49 10° NE
STARLINK-1231 3.6 01:27:42 10° WNW 01:31:53 82° NNE 01:36:02 10° ESE
CZ-4C R/B 3.5 01:30:46 21° SSE 01:33:33 85° ENE 01:37:56 10° NNW
STARLINK-1228 3.2 01:30:22 10° WNW 01:33:36 48° SSW 01:36:51 10° SE
STARLINK-1246 4.1 01:29:52 10° W 01:33:59 62° N 01:38:06 10° E
STARLINK-1234 3.0 01:31:49 10° WNW 01:34:50 47° SSW 01:37:03 16° SE
STARLINK-1212 2.8 01:33:10 10° WNW 01:36:13 58° SSW 01:39:17 10° SE
Resurs 1-4 Rocket 2.6 01:31:12 10° NNE 01:36:23 52° E 01:40:11 18° S
STARLINK-1105 2.8 01:33:38 10° WNW 01:36:41 57° SSW 01:39:44 10° SE
DELTA 2 DEB (DPAF) 4.2 01:34:11 25° S 01:36:41 64° WSW 01:41:09 10° NNW
Cosmos 1943 Rocket 4.0 01:32:15 10° W 01:36:43 24° NW 01:41:14 10° NNE
STARLINK-1232 3.6 01:32:41 10° WNW 01:36:52 85° NNE 01:41:01 10° ESE
STARLINK-1209 3.1 01:34:05 10° WNW 01:37:07 44° SSW 01:38:42 23° SSE
STARLINK-1247 2.8 01:34:32 10° WNW 01:37:37 57° SSW 01:40:41 10° SE
STARLINK-1227 2.8 01:35:01 10° WNW 01:38:03 56° SSW 01:41:05 10° SE
Meteor 2-5 Rocket 4.0 01:35:17 23° SW 01:38:41 57° WNW 01:44:13 10° N
STARLINK-1226 2.8 01:35:51 10° WNW 01:38:55 56° SSW 01:41:59 10° SE
STARLINK-1224 4.1 01:34:51 10° W 01:38:58 63° N 01:43:06 10° E
STARLINK-1215 2.9 01:36:48 10° WNW 01:39:52 55° SSW 01:42:56 10° SE
STARLINK-52 4.1 01:39:41 26° SSE 01:40:03 27° SE 01:42:50 10° E
STARLINK-1217 2.9 01:38:34 10° WNW 01:41:37 53° SSW 01:44:41 10° SE
STARLINK-1208 3.6 01:37:39 10° WNW 01:41:50 88° NNE 01:45:59 10° ESE
STARLINK-1229 2.9 01:39:29 10° WNW 01:42:32 53° SSW 01:45:36 10° SE
STARLINK-1270 2.9 01:40:21 10° WNW 01:43:24 52° SSW 01:46:28 10° SE
NPP 4.2 01:38:32 10° NNE 01:43:49 52° E 01:47:57 16° S
STARLINK-1225 4.1 01:39:51 10° W 01:43:59 63° N 01:48:06 10° E
STARLINK-1189 2.9 01:42:12 10° WNW 01:45:14 51° SSW 01:48:16 10° SE
Meteor 1-29 4.3 01:42:40 10° N 01:45:40 29° WNW 01:47:11 20° WSW
STARLINK-1188 3.0 01:43:04 10° WNW 01:46:07 50° SSW 01:49:10 10° SE
STARLINK-1235 3.2 01:43:48 10° WNW 01:46:46 41° SSW 01:49:41 10° SE
STARLINK-1271 3.5 01:42:39 10° WNW 01:46:50 89° S 01:50:59 10° ESE
STARLINK-1187 3.1 01:44:13 10° WNW 01:47:11 45° SSW 01:50:10 10° SE
Cosmos 1898 Rocket 4.3 01:42:19 10° NNW 01:47:35 53° ENE 01:52:47 10° SE
STARLINK-1191 3.0 01:45:34 10° WNW 01:48:35 48° SSW 01:51:35 10° SE
STARLINK-1230 4.1 01:44:50 10° WNW 01:48:58 63° N 01:53:05 10° E
Lacrosse 4 Rocket 3.8 01:45:11 10° NNW 01:48:58 27° NE 01:52:40 10° E
Cosmos 2058 Rocket 3.9 01:44:57 10° NNW 01:48:59 35° W 01:51:01 23° SW
Starlink 7 placeholder 2.2 01:49:43 50° ESE 01:49:43 50° ESE 01:51:21 10° ENE
STARLINK-1221 3.0 01:46:26 10° WNW 01:49:26 47° SSW 01:52:27 10° SE
STARLINK-1222 3.0 01:47:20 10° WNW 01:50:20 47° SSW 01:53:19 10° SE
STARLINK-1214 3.0 01:48:14 10° WNW 01:51:14 46° SSW 01:54:13 10° SE
STARLINK-1154 3.5 01:47:38 10° WNW 01:51:49 86° SSW 01:55:58 10° ESE
SJ 16-02 1.9 01:48:51 10° NNW 01:53:15 60° ENE 01:57:38 10° SE
STARLINK-1243 4.1 01:49:50 10° WNW 01:53:57 64° N 01:58:05 10° E
CZ-4C R/B 4.1 01:51:24 10° SSE 01:54:38 17° ESE 01:58:13 10° ENE
Cosmos 2084 4.2 01:52:18 22° S 01:54:46 43° SE 01:59:01 10° NE
SL-14 R/B 3.9 01:54:05 23° SW 01:56:03 42° WNW 01:59:45 10° N
SL-08 ROCKET BODY 4.3 01:52:04 19° S 01:56:23 86° W 02:02:17 10° N
STARLINK-1197 3.5 01:52:37 10° WNW 01:56:47 82° SSW 02:00:56 10° ESE
Cosmos 1300 3.6 01:55:00 10° NNW 01:58:26 32° W 02:00:00 23° SW
STARLINK-1236 4.1 01:54:49 10° WNW 01:58:57 65° N 02:03:05 10° E
COSMOS 2455 3.2 01:54:47 16° SW 01:59:33 63° NW 02:05:34 10° NNE
Meteor 2-10 Rocket 3.7 01:55:00 10° N 02:00:25 74° ENE 02:05:34 10° SSE
STARLINK-1198 3.5 01:57:34 10° WNW 02:01:44 79° SSW 02:05:52 10° ESE
Cosmos 921 Rocket 3.0 02:00:21 23° SSW 02:02:58 71° WNW 02:07:18 10° NNE
Cosmos 1174 4.4 02:03:35 18° WSW 02:05:46 42° NW 02:09:29 10° NNE
STARLINK-1199 3.5 02:02:35 10° WNW 02:06:45 75° SSW 02:10:53 10° ESE
Cosmos 1709 Rocket 4.2 02:01:48 13° S 02:07:12 70° E 02:13:18 10° NNE
Cosmos 1386 Rocket 4.5 02:02:40 18° SSW 02:07:17 76° W 02:13:29 10° N
STARLINK-1269 4.0 02:04:47 10° WNW 02:08:55 67° N 02:13:03 10° E
Cosmos 1626 Rocket 3.6 02:06:42 21° SSW 02:09:30 65° WNW 02:13:50 10° N
STARLINK-60 2.8 02:08:52 21° WSW 02:10:52 79° SSE 02:14:05 10° ENE
Cosmos 1626 3.5 02:09:03 18° WSW 02:11:03 28° WNW 02:14:18 10° N
STARLINK-1210 3.5 02:07:33 10° WNW 02:11:42 71° SSW 02:15:50 10° ESE
STARLINK-1200 4.0 02:09:47 10° WNW 02:13:56 68° N 02:18:04 10° E
Cosmos 2219 3.2 02:09:34 10° NW 02:15:11 63° WSW 02:20:44 10° SSE
STARLINK-1219 3.5 02:12:32 10° WNW 02:16:40 68° SSW 02:20:47 10° ESE
STARLINK-1192 3.9 02:14:47 10° WNW 02:18:55 69° N 02:23:04 10° E
Cosmos 1980 Rocket 4.3 02:16:25 10° SE 02:20:12 19° E 02:24:00 10° ENE
STARLINK-1211 3.5 02:17:30 10° WNW 02:21:37 64° SSW 02:25:43 10° SE
STARLINK-1327 4.5 02:21:41 17° S 02:22:59 22° SE 02:25:30 10° E
STARLINK-1340 4.5 02:22:01 17° S 02:23:21 22° SE 02:25:51 10° E
STARLINK-1356 4.5 02:22:21 17° S 02:23:41 22° SE 02:26:12 10° E
ERBS 4.2 02:20:47 10° NW 02:23:50 32° NNE 02:26:54 10° E
STARLINK-1244 3.9 02:19:45 10° WNW 02:23:54 71° N 02:28:03 10° E
STARLINK-1345 4.5 02:22:41 17° S 02:24:01 22° SE 02:26:33 10° E
STARLINK-1355 4.5 02:22:59 17° S 02:24:21 23° SE 02:26:53 10° E
Cosmos 192 4.4 02:20:35 16° SSW 02:24:32 78° ESE 02:29:32 10° NNE
STARLINK-1321 4.5 02:23:18 17° S 02:24:40 23° SE 02:27:12 10° E
STARLINK-1358 4.5 02:23:39 17° S 02:25:02 23° SE 02:27:34 10° E
STARLINK-1332 4.4 02:23:57 17° S 02:25:21 23° SE 02:27:53 10° E
UNK 4.3 02:22:20 17° SSW 02:25:33 39° W 02:29:54 10° NNW
STARLINK-1348 4.4 02:24:18 17° S 02:25:43 23° SE 02:28:15 10° E
ERS-2 3.6 02:22:31 10° SE 02:25:56 38° ENE 02:29:22 10° N
STARLINK-1330 4.4 02:24:36 17° S 02:26:01 23° SE 02:28:35 10° E
Cosmos 220 Rocket 4.3 02:22:56 17° SW 02:26:10 60° WNW 02:30:34 10° NNE
STARLINK-1363 4.4 02:24:56 17° S 02:26:21 23° SE 02:28:55 10° E
Cosmos 1437 4.1 02:24:54 17° WSW 02:26:26 24° WNW 02:29:00 10° NNW
STARLINK-1245 3.6 02:22:30 10° WNW 02:26:36 61° SSW 02:30:41 10° SE
STARLINK-1337 4.4 02:25:15 17° S 02:26:42 23° SE 02:29:16 10° E
STARLINK-1342 4.4 02:25:35 17° S 02:27:02 23° SE 02:29:36 10° E
STARLINK-1364 4.4 02:25:55 17° S 02:27:23 24° SE 02:29:57 10° E
STARLINK-1376 4.4 02:26:15 17° S 02:27:43 24° SE 02:30:18 10° E
STARLINK-1360 4.4 02:26:30 17° S 02:27:59 24° SE 02:30:35 10° E
AQUA 3.8 02:23:19 10° NNE 02:28:06 84° WNW 02:32:11 14° SSW
Cosmos 1812 Rocket 4.0 02:23:51 10° NNW 02:28:08 46° W 02:31:37 15° SSW
STARLINK-1361 4.4 02:26:56 17° S 02:28:25 24° SE 02:31:01 10° E
STARLINK-1367 4.4 02:27:10 17° S 02:28:42 24° SE 02:31:20 10° E
STARLINK-1138 3.9 02:24:44 10° WNW 02:28:53 72° N 02:33:02 10° E
STARLINK-1366 4.4 02:27:33 17° S 02:29:03 24° SE 02:31:40 10° E
SL-4 R/B 2.3 02:24:45 11° WSW 02:29:23 79° SSE 02:34:03 10° ENE
CZ-4B R/B 3.6 02:25:29 10° NNE 02:30:38 79° WNW 02:35:13 14° SSW
Cosmos 2297 Rocket 2.3 02:25:09 10° NW 02:30:43 59° WSW 02:36:14 10° S
STARLINK-1233 3.6 02:27:29 10° WNW 02:31:34 57° SSW 02:35:38 10° SE
STARLINK-1203 3.9 02:27:32 10° WNW 02:31:46 74° NNE 02:35:58 10° E
STARLINK-1353 4.5 02:31:17 16° SSW 02:33:18 27° SE 02:36:17 10° E
STARLINK-1143 3.8 02:29:43 10° WNW 02:33:52 74° NNE 02:38:02 10° E
Cosmos 2082 3.8 02:28:45 10° NNW 02:34:28 84° ENE 02:40:06 10° SSE
STARLINK-1375 4.5 02:33:04 16° SSW 02:35:09 28° SE 02:38:10 10° E
STARLINK-1204 3.7 02:32:29 10° WNW 02:36:32 54° SSW 02:40:35 10° SE
Cosmos 990 Rocket 4.0 02:31:22 10° NNW 02:36:37 67° WSW 02:41:48 10° S
ATLAS CENTAUR R/B 2.6 02:33:13 10° WSW 02:37:14 36° NW 02:41:01 10° NNE
CBERS-1 4.1 02:32:20 10° NNE 02:37:29 84° ESE 02:42:28 11° SSW
STARLINK-1350 4.4 02:35:22 16° SSW 02:37:32 29° SE 02:40:35 10° E
FALCON 9 DEB 3.4 02:35:24 17° SW 02:37:51 52° SSE 02:41:14 10° ENE
STARLINK-1241 3.8 02:34:42 10° WNW 02:38:52 76° NNE 02:43:01 10° E
STARLINK-29 2.9 02:36:59 15° WSW 02:39:31 73° SSE 02:42:43 10° ENE
STARLINK-1352 4.3 02:37:40 15° SSW 02:39:56 30° SE 02:43:04 10° E
Cosmos 1455 2.4 02:37:16 10° NNW 02:40:55 49° W 02:44:16 12° SSW
STARLINK-1238 3.7 02:37:27 10° WNW 02:41:28 51° SSW 02:45:30 10° SE
STARLINK-1368 4.3 02:39:45 15° SSW 02:42:06 31° SE 02:45:16 10° E
Cosmos 1602 Rocket 4.2 02:39:06 15° SW 02:42:25 40° WNW 02:46:31 10° N
Cosmos 1825 Rocket 3.5 02:38:21 11° S 02:42:29 88° E 02:46:50 10° N
STARLINK-1239 3.8 02:39:40 10° WNW 02:43:51 79° NNE 02:48:00 10° ESE
STARLINK-1369 4.3 02:41:37 15° SSW 02:44:00 32° SE 02:47:09 10° E
ATLAS CENTAUR R/B 2.6 02:42:15 10° WNW 02:45:03 34° SW 02:50:48 10° SSE
Meteor 1-28 Rocket 3.9 02:41:59 10° SSE 02:45:42 57° ENE 02:49:25 10° N
SL-16 R/B 3.3 02:41:06 12° SSW 02:46:08 34° W 02:51:41 10° NNW
Cosmos 2263 Rocket 4.1 02:41:02 10° NNW 02:46:10 34° NE 02:51:13 10° ESE
STARLINK-1201 3.8 02:42:27 10° WNW 02:46:27 48° SSW 02:50:26 10° SE
STARLINK-1372 4.2 02:43:57 14° SSW 02:46:28 33° SE 02:49:40 10° E
STARLINK-1378 4.2 02:46:05 14° SSW 02:48:41 34° SE 02:51:55 10° E
STARLINK-1240 3.7 02:44:40 10° WNW 02:48:50 81° NNE 02:53:00 10° ESE
STARLINK-1329 4.2 02:46:35 14° SSW 02:49:12 35° SE 02:52:28 10° E
GP-B 3.3 02:44:56 10° N 02:49:18 56° W 02:53:37 10° SSW
STARLINK-1365 4.1 02:47:17 14° SSW 02:49:55 36° SSE 02:53:11 10° E
IRS-1D 3.7 02:45:01 10° NNE 02:50:24 79° WNW 02:55:41 10° SSW
Cosmos 841 Rocket 4.4 02:45:27 10° S 02:50:24 44° ESE 02:55:22 10° NE
STARLINK-1379 4.1 02:48:13 14° SSW 02:50:53 35° SSE 02:54:10 10° E
STARLINK-1206 3.9 02:47:27 10° WNW 02:51:25 45° SSW 02:55:22 10° SE
STARLINK-1362 4.1 02:48:47 14° SSW 02:51:29 36° SSE 02:54:45 10° E
Cosmos-2242 3.1 02:48:17 10° NNW 02:52:29 55° W 02:56:38 10° S
ATLAS 5 CENTAUR R/B 3.9 02:52:33 10° NNW 02:53:12 11° N 02:53:55 10° NNE
Cosmos 1400 Rocket 3.1 02:49:31 10° N 02:53:38 74° ENE 02:57:46 10° SSE
STARLINK-1373 4.1 02:50:59 13° SSW 02:53:46 37° SSE 02:57:05 10° ENE
STARLINK-1216 3.7 02:49:39 10° WNW 02:53:49 84° NNE 02:57:59 10° ESE
Cosmos 2221 4.1 02:50:18 10° N 02:54:21 38° ENE 02:58:25 10° SE
ATLAS 3B R/B 4.0 02:50:53 10° WNW 02:55:14 18° WSW 02:59:41 10° SSW
COBE Rocket 4.1 02:50:51 10° SSE 02:55:46 80° ENE 03:00:53 10° N
STARLINK-1390 4.0 02:52:59 13° SSW 02:55:49 38° SSE 02:59:08 10° ENE
STARLINK-1205 4.0 02:52:26 10° WNW 02:56:22 42° SSW 03:00:17 10° SE
STARLINK-1237 3.7 02:54:38 10° WNW 02:58:48 87° NNE 03:02:58 10° ESE
RESURS DK-1 3.8 02:55:32 10° WSW 02:59:10 29° NW 03:02:48 10° NNE
Cosmos 2184 Rocket 4.3 02:53:56 10° S 03:00:03 68° E 03:06:11 10° NNE
SL-08 R/B 3.3 02:56:37 10° S 03:01:18 66° WSW 03:05:56 10° NNW
STARLINK-1218 4.0 02:57:25 10° WNW 03:01:18 39° SW 03:05:11 10° SE
CZ-4C R/B 3.9 02:58:08 10° SSE 03:01:39 54° ENE 03:05:14 10° N
STARLINK-1202 3.6 02:59:37 10° WNW 03:03:48 90° NE 03:07:57 10° ESE
IRS-P3 4.2 03:00:39 10° NNE 03:06:01 81° WNW 03:11:20 10° SSW
Cosmos 1703 3.5 03:02:12 10° SSW 03:06:06 55° WNW 03:10:00 10° N
Cosmos 2227 Rocket 2.8 03:00:57 10° NW 03:06:09 38° WSW 03:11:19 10° S
STARLINK-1254 4.1 03:02:26 10° WNW 03:06:16 37° SW 03:10:06 10° SSE
CZ-2D R/B 3.1 03:01:48 10° N 03:06:33 34° WNW 03:11:12 10° SW
Cosmos 2181 Rocket 4.3 03:00:48 10° NNW 03:06:59 52° W 03:13:12 10° SSW
Cosmos 1763 Rocket 3.5 03:03:57 10° SSW 03:09:05 79° WNW 03:14:12 10° NNE
ADEOS II 2.2 03:03:52 10° NNE 03:09:08 71° WNW 03:14:22 10° SSW
Cosmos 1697 Rocket 2.9 03:05:30 10° SSW 03:11:09 74° ESE 03:16:50 10° NNE
STARLINK-1231 4.2 03:07:28 10° WNW 03:11:15 34° SW 03:15:00 10° SSE
Cosmos 1315 Rocket 4.0 03:09:51 10° N 03:13:39 45° ENE 03:17:25 10° SSE
STARLINK-1246 3.6 03:09:34 10° WNW 03:13:44 83° SSW 03:17:54 10° ESE
CZ-2C R/B 3.9 03:12:22 10° NNE 03:15:52 39° E 03:19:22 10° S
STARLINK-52 3.0 03:12:44 10° WSW 03:15:58 81° NNW 03:19:11 10° ENE
Resurs 1-4 Rocket 3.3 03:11:28 10° N 03:15:58 29° WNW 03:20:29 10° WSW
STARLINK-1232 4.3 03:12:28 10° W 03:16:12 32° SW 03:19:54 10° SSE
STARLINK-1224 3.6 03:14:33 10° WNW 03:18:43 80° SSW 03:22:52 10° ESE
ARIANE 5 R/B 2.5 03:15:35 10° NNE 03:20:42 85° WNW 03:25:44 10° SSW
Cosmos 1758 Rocket 4.5 03:16:54 10° SW 03:20:52 34° WNW 03:24:53 10° N
STARLINK-1208 4.4 03:17:28 10° W 03:21:07 30° SW 03:24:45 10° SSE
ATLAS 2AS CENTAUR R/B 4.2 03:14:35 10° W 03:21:59 38° NNW 03:29:09 10° NE
H-2A R/B 2.1 03:17:48 10° S 03:22:07 74° WSW 03:26:34 10° NNW
BREEZE-M R/B 2.2 03:19:21 10° WSW 03:22:59 59° S 03:25:28 10° E
Starlink 7 placeholder 3.0 03:21:20 10° WNW 03:23:12 39° N 03:25:09 10° ENE
STARLINK-1225 3.6 03:19:33 10° WNW 03:23:42 76° SSW 03:27:51 10° ESE
Spot 4 Rocket 4.2 03:21:24 10° NNE 03:26:36 81° ESE 03:31:44 10° SSW
